Voltar ao catálogo

SPAWAR-CAL-O

AtivoMilitarSSO
NORAD 43766·PAYLOAD·🇺🇸 United States

Lançado Dec 3, 2018 de Vandenberg Space Force Base

Loading…

Próximas Passagens (próximas 24 horas)

TLE

AtualizadoSource: Space-Track

Época: Sep 13, 2026, 16:36 UTC

1 43766U 18099J   26256.69183024  .00015319  00000-0  40917-3 0  9990
2 43766  97.4238 321.5675 0006499 342.4100  17.6919 15.38172659427117

Acompanhe SPAWAR-CAL-O em tempo real com AllMySat

Download on the App Store